Weather History for K4MR - August, 2014

Change the Weather History Date:

Sunday, August 17, 2014

  Actual Average (KCVS) Record (KCVS)
Temperature  
Mean Temperature 76 °F -  
Max Temperature 91 °F 86 °F 93 °F (2003)
Min Temperature 62 °F 62 °F 57 °F (2008)
Cooling Degree Days 11    
Growing Degree Days 26 (Base 50)    
Moisture  
Dew Point 53 °F    
Average Humidity 51    
Maximum Humidity 89    
Minimum Humidity 18    
Precipitation  
Precipitation 0.05 in - - ()
Sea Level Pressure  
Sea Level Pressure 29.96 in    
Wind  
Wind Speed 7 mph (SW)    
Max Wind Speed 13 mph    
Max Gust Speed 14 mph    
Visibility 10 miles    
Events      
Averages and records for this station are not official NWS values.
T = Trace of Precipitation, MM = Missing Value Source: NWS Daily Summary

Daily Weather History Graph

Daily Weather History Graph

Search for Another Location

Airport or City:

Trip Planner

Search our weather history database for the weather conditions in past years. The results will help you decide how hot, cold, wet, or windy it might be!

Date:

Astronomy

Aug. 17, 2014 Rise Set
Actual Time 6:17 AM MDT 7:40 PM MDT
Civil Twilight 5:51 AM MDT 8:06 PM MDT
Nautical Twilight 5:19 AM MDT 8:37 PM MDT
Astronomical Twilight 4:46 AM MDT 9:10 PM MDT
Moon No Moon Rise 1:45 PM MDT (8/17)
Length of Visible Light 14h 15m
Length of Day
13h 22m
Waning Gibbous, 48% of the Moon is Illuminated
Aug 17
Waning Gibbous
Aug 25
New
Sep 2
First Quarter
Sep 8
Full
Sep 15
Last Quarter

Hourly Weather History & Observations

Time (MDT) Temp. Heat Index Dew Point Humidity Pressure Visibility Wind Dir Wind Speed Gust Speed Precip Events Conditions
12:56 AM 66.9 °F - 59.7 °F 78% 29.99 in 10.0 mi WNW 6.9 mph - N/A   Mostly Cloudy
1:56 AM 65.3 °F - 59.5 °F 82% 29.97 in 10.0 mi North 2.3 mph - N/A   Clear
2:56 AM 63.7 °F - 59.0 °F 85% 29.97 in 10.0 mi West 10.4 mph - N/A   Clear
3:56 AM 63.3 °F - 60.1 °F 89% 29.97 in 10.0 mi West 11.5 mph - N/A   Clear
4:56 AM 62.8 °F - 59.4 °F 89% 29.99 in 10.0 mi West 10.4 mph - N/A   Clear
5:56 AM 62.2 °F - 57.7 °F 85% 29.99 in 10.0 mi West 8.1 mph - N/A   Clear
6:56 AM 62.4 °F - 57.0 °F 82% 30.01 in 10.0 mi West 4.6 mph - N/A   Clear
7:56 AM 69.8 °F - 58.6 °F 68% 30.01 in 10.0 mi NNW 3.5 mph - N/A   Clear
8:56 AM 76.6 °F - 53.8 °F 45% 29.99 in 10.0 mi WNW 6.9 mph - N/A   Clear
9:56 AM 80.2 °F 80.0 °F 53.1 °F 39% 30.00 in 10.0 mi NE 5.8 mph - N/A   Clear
10:56 AM 82.2 °F - 52.7 °F 36% 30.00 in 10.0 mi Variable 6.9 mph - N/A   Clear
11:56 AM 84.0 °F - 49.5 °F 30% 29.99 in 10.0 mi South 4.6 mph - N/A   Mostly Cloudy
12:56 PM 87.3 °F - 48.7 °F 26% 29.98 in 10.0 mi Variable 5.8 mph - N/A   Clear
1:56 PM 88.5 °F - 48.7 °F 25% 29.97 in 10.0 mi Variable 5.8 mph 13.8 mph N/A   Partly Cloudy
2:56 PM 88.5 °F - 47.5 °F 24% 29.95 in 10.0 mi Variable 2.3 mph - N/A   Scattered Clouds
3:56 PM 89.4 °F - 45.5 °F 22% 29.91 in 10.0 mi SE 8.1 mph - N/A   Partly Cloudy
4:56 PM 90.5 °F - 42.1 °F 18% 29.89 in 10.0 mi Variable 2.3 mph - N/A   Clear
5:56 PM 88.3 °F - 43.5 °F 21% 29.89 in 10.0 mi East 12.7 mph - N/A   Partly Cloudy
6:56 PM 85.6 °F - 45.9 °F 25% 29.91 in 10.0 mi ESE 9.2 mph - N/A   Clear
7:56 PM 75.7 °F - 49.8 °F 40% 29.93 in 10.0 mi ESE 5.8 mph - N/A   Clear
8:56 PM 74.7 °F - 47.5 °F 38% 29.94 in 10.0 mi SE 6.9 mph - N/A   Clear
9:56 PM 72.3 °F - 51.1 °F 47% 29.95 in 10.0 mi SSE 9.2 mph - N/A   Clear
10:56 PM 71.6 °F - 55.9 °F 58% 29.96 in 10.0 mi SSE 11.5 mph - N/A   Clear
11:56 PM 68.9 °F - 57.0 °F 66% 29.95 in 10.0 mi South 10.4 mph - N/A   Clear